• Join FlightAware (Why Join?)
  • Login
  • US Flag 
09:11PM EST


 

Airport Tracker/Info


-or-


 

Live Flight TrackerFlight Track Log ✈ UPS1122 ✈ 26-Jun-2013 ✈ KPHL - KBDL

Flight Track Log - Related Links

Times and Time Zones

All times are in EDT time to prevent confusion due to time zone crossing. See the UPS1122 flight status page for this flight to view local times or setup timezone preferences in your user account.

Time Position Orientation Groundspeed Altitude Reporting Facility
EDT Latitude Longitude Course Direction KTS MPH feet Rate Location/Type
03:46AM 39.8624 -75.2665 251° West 140 161 900  Level FlightAware ADS-B
03:46AM 39.8614 -75.2696 247° West 139 160 1,200 3,300 Climbing FlightAware ADS-B
03:46AM 39.8600 -75.2732 243° Southwest 139 160 1,400 2,640 Climbing FlightAware ADS-B
03:46AM 39.8585 -75.2764 239° Southwest 141 162 1,600 1,260 Climbing FlightAware ADS-B
03:47AM 39.8551 -75.2835 238° Southwest 153 176 1,700 480 Climbing FlightAware ADS-B
03:47AM 39.8494 -75.2944 236° Southwest 170 196 1,800 720 Climbing FlightAware ADS-B
03:47AM 39.8437 -75.3053 236° Southwest 185 213 2,000 1,620 Climbing FlightAware ADS-B
03:47AM 39.8407 -75.3109 235° Southwest 189 217 2,300 2,640 Climbing FlightAware ADS-B
03:47AM 39.8388 -75.3137 229° Southwest 193 222 2,400 1,680 Climbing FlightAware ADS-B
03:47AM 39.8366 -75.3165 224° Southwest 198 228 2,500 2,640 Climbing FlightAware ADS-B
03:47AM 39.8321 -75.3204 214° Southwest 208 239 2,800 3,300 Climbing FlightAware ADS-B
03:47AM 39.8290 -75.3220 202° Southwest 213 245 3,000 2,520 Climbing FlightAware ADS-B
03:47AM 39.8255 -75.3229 191° South 217 250 3,100 2,520 Climbing FlightAware ADS-B
03:47AM 39.8220 -75.3232 184° South 224 258 3,300 2,520 Climbing FlightAware ADS-B
03:48AM 39.8188 -75.3229 176° South 229 264 3,400 3,000 Climbing FlightAware ADS-B
03:48AM 39.8156 -75.3221 169° South 234 269 3,600 3,000 Climbing FlightAware ADS-B
03:48AM 39.8123 -75.3208 163° South 239 275 3,700 1,980 Climbing FlightAware ADS-B
03:48AM 39.8084 -75.3190 160° South 245 282 3,800 2,220 Climbing FlightAware ADS-B
03:48AM 39.8032 -75.3157 154° Southeast 254 292 4,000 1,800 Climbing FlightAware ADS-B
03:48AM 39.7985 -75.3119 148° Southeast 264 304 4,100 1,500 Climbing FlightAware ADS-B
03:48AM 39.7953 -75.3089 144° Southeast 271 312 4,200 1,680 Climbing FlightAware ADS-B
03:48AM 39.7917 -75.3046 137° Southeast 278 320 4,300 1,680 Climbing FlightAware ADS-B
03:48AM 39.7893 -75.3010 131° Southeast 282 325 4,400 1,680 Climbing FlightAware ADS-B
03:48AM 39.7858 -75.2945 125° Southeast 287 330 4,500 1,680 Climbing FlightAware ADS-B
03:48AM 39.7840 -75.2899 117° Southeast 291 335 4,600 2,520 Climbing FlightAware ADS-B
03:48AM 39.7824 -75.2846 111° Southeast 293 337 4,800 3,000 Climbing FlightAware ADS-B
03:48AM 39.7809 -75.2775 105° East 293 337 5,000 2,520 Climbing FlightAware ADS-B
03:48AM 39.7803 -75.2719 98° East 290 334 5,100 3,000 Climbing FlightAware ADS-B
03:48AM 39.7802 -75.2660 91° East 288 331 5,300 3,420 Climbing FlightAware ADS-B
03:48AM 39.7806 -75.2605 85° East 288 331 5,500 3,720 Climbing FlightAware ADS-B
03:48AM 39.7818 -75.2523 79° East 288 331 5,800 2,820 Climbing FlightAware ADS-B
03:49AM 39.7861 -75.2305 76° East 295 339 6,300 2,100 Climbing FlightAware ADS-B
03:49AM 39.7881 -75.2189 77° East 302 348 6,500 1,620 Climbing FlightAware ADS-B
03:49AM 39.7890 -75.2120 80° East 305 351 6,600 3,000 Climbing FlightAware ADS-B
03:49AM 39.7900 -75.1995 84° East 307 353 7,000 3,000 Climbing FlightAware ADS-B
03:49AM 39.7909 -75.1710 88° East 309 356 7,700 2,880 Climbing FlightAware ADS-B
03:49AM 39.7912 -75.1427 89° East 309 356 8,500 3,060 Climbing FlightAware ADS-B
03:50AM 39.7912 -75.1157 90° East 313 360 9,200 2,880 Climbing FlightAware ADS-B
03:50AM 39.7915 -75.0838 89° East 318 366 10,000 2,280 Climbing FlightAware ADS-B
03:50AM 39.7927 -75.0349 88° East 337 388 10,800 1,620 Climbing FlightAware ADS-B
03:51AM 39.7928 -74.9705 90° East 369 425 11,500 1,380 Climbing FlightAware ADS-B
03:51AM 39.7934 -74.9126 89° East 391 450 12,100 1,860 Climbing FlightAware ADS-B
03:52AM 39.7949 -74.8347 89° East 403 464 13,300 2,160 Climbing FlightAware ADS-B
03:52AM 39.7961 -74.7639 89° East 418 481 14,300 2,040 Climbing FlightAware ADS-B
03:52AM 39.7973 -74.7489 84° East 419 482 14,500 2,460 Climbing FlightAware ADS-B
03:53AM 39.8003 -74.7327 76° East 418 481 14,800 3,000 Climbing FlightAware ADS-B
03:53AM 39.8039 -74.7200 70° East 417 480 15,100 2,700 Climbing FlightAware ADS-B
03:53AM 39.8086 -74.7080 63° Northeast 415 478 15,300 2,640 Climbing FlightAware ADS-B
03:53AM 39.8131 -74.6993 56° Northeast 414 476 15,500 2,280 Climbing FlightAware ADS-B
03:53AM 39.8234 -74.6839 49° Northeast 413 475 15,800 1,980 Climbing FlightAware ADS-B
03:53AM 39.8321 -74.6742 41° Northeast 412 474 16,000 2,400 Climbing FlightAware ADS-B
03:53AM 39.8474 -74.6609 34° Northeast 410 472 16,400 2,700 Climbing FlightAware ADS-B
03:54AM 39.8898 -74.6278 31° Northeast 408 470 17,600 2,280 Climbing FlightAware ADS-B
03:54AM 39.9384 -74.5868 33° Northeast 417 480 18,600 2,040 Climbing FlightAware ADS-B
03:54AM 39.9681 -74.5607 34° Northeast 421 484 19,300 2,100 Climbing FlightAware ADS-B
03:55AM 40.0163 -74.5164 35° Northeast 426 490 20,300 1,620 Climbing FlightAware ADS-B
03:56AM 40.0671 -74.4694 35° Northeast 424 488 21,000 660 Climbing FlightAware ADS-B
03:56AM 40.1160 -74.4238 35° Northeast 423 487 21,000  Level FlightAware ADS-B
03:57AM 40.1642 -74.3789 35° Northeast 422 486 21,000  Level FlightAware ADS-B
03:57AM 40.2133 -74.3333 35° Northeast 421 484 21,000  Level FlightAware ADS-B
03:58AM 40.2616 -74.2884 35° Northeast 420 483 21,000  Level FlightAware ADS-B
03:58AM 40.3094 -74.2439 35° Northeast 416 479 21,000  Level FlightAware ADS-B
03:59AM 40.3570 -74.1995 35° Northeast 414 476 21,000  Level FlightAware ADS-B
03:59AM 40.4053 -74.1543 35° Northeast 413 475 21,000  Level FlightAware ADS-B
04:00AM 40.4521 -74.1104 36° Northeast 416 479 21,000  Level FlightAware ADS-B
04:00AM 40.4992 -74.0662 36° Northeast 417 480 21,000  Level FlightAware ADS-B
04:01AM 40.5468 -74.0215 36° Northeast 420 483 21,000  Level FlightAware ADS-B
04:01AM 40.5944 -73.9773 35° Northeast 420 483 21,000  Level FlightAware ADS-B
04:02AM 40.6429 -73.9322 35° Northeast 423 487 21,000  Level FlightAware ADS-B
04:02AM 40.6918 -73.8871 35° Northeast 423 487 21,000  Level FlightAware ADS-B
04:03AM 40.7406 -73.8416 35° Northeast 424 488 21,000  Level FlightAware ADS-B
04:03AM 40.7897 -73.7955 35° Northeast 425 489 21,000  Level FlightAware ADS-B
04:04AM 40.8384 -73.7496 35° Northeast 424 488 21,000  Level FlightAware ADS-B
04:04AM 40.8863 -73.7043 36° Northeast 422 486 21,000  Level FlightAware ADS-B
04:05AM 40.9347 -73.6583 36° Northeast 422 486 21,000  Level FlightAware ADS-B
04:05AM 40.9836 -73.6116 36° Northeast 421 484 21,000  Level FlightAware ADS-B
04:06AM 41.0319 -73.5652 36° Northeast 420 483 21,000  Level FlightAware ADS-B
04:06AM 41.0795 -73.5194 36° Northeast 420 483 21,000 -1,620 Level FlightAware ADS-B
04:07AM 41.1300 -73.4711 36° Northeast 429 494 19,400 -2,820 Descending FlightAware ADS-B
04:07AM 41.1788 -73.4243 36° Northeast 429 494 18,100 -2,580 Descending FlightAware ADS-B
04:08AM 41.2282 -73.3769 36° Northeast 423 487 16,800 -2,460 Descending FlightAware ADS-B
04:08AM 41.2935 -73.3141 36° Northeast 413 475 15,200 -2,400 Descending FlightAware ADS-B
04:09AM 41.3560 -73.2540 36° Northeast 406 467 13,500 -1,740 Descending FlightAware
04:10AM 41.4120 -73.2000 36° Northeast 406 467 12,900 -480 Descending FlightAware
04:10AM 41.4590 -73.1570 34° Northeast 406 467 12,900  Level FlightAware
04:11AM 41.5140 -73.1050 35° Northeast 406 467 12,900 -1,500 Level FlightAware
04:12AM 41.5567 -73.0642 35° Northeast 350 403 11,000 -1,980 Descending Boston Center
04:12AM 41.5986 -73.0064 46° Northeast 332 382 10,700 -1,440 Descending Boston Center
04:13AM 41.6472 -72.9039 58° Northeast 326 375 8,800 -2,100 Descending Boston Center
04:14AM 41.6933 -72.8097 57° Northeast 306 352 6,500 -2,400 Descending Boston Center
04:15AM 41.7414 -72.7128 56° Northeast 293 337 4,000 -1,860 Descending Boston Center
04:16AM 41.7833 -72.6378 53° Northeast 253 291 2,800 -1,020 Descending Boston Center
04:17AM 41.8208 -72.5822 48° Northeast 194 223 2,000 -480 Descending Boston Center
04:18AM 41.8667 -72.5989 345° North 163 188 1,900 -420 Descending Boston Center
04:19AM 41.8917 -72.6325 315° West 139 160 1,200 -720 Descending Boston Center
04:20AM 41.9167 -72.6689 313° West 130 150 500 -420 Descending Boston Center
04:22AM 41.9542 -72.7081 322° Northwest 135 155 200 -240 Descending Boston Center
04:28AM 41.9333 -72.6833 143° Southeast  Level FlightAware Approximate